This is the latest recevied weather packets stored in our database for station/object N3WGC-14. If no packets are shown the sender has not sent any weather packets the latest 1 day(s).
| Time | Temp. | Humidity | Pressure | Rain* | Wind** | Luminosity | Snow |
|---|---|---|---|---|---|---|---|
| 1778024950 | 23.89° C | 56% | 1009.8 hPa | 0 mm | 0.45 m/s, 117° | - | - |
| 1778024650 | 23.89° C | 55% | 1009.7 hPa | 0 mm | 0.89 m/s, 121° | - | - |
| 1778024350 | 23.89° C | 55% | 1009.7 hPa | 0 mm | 0.89 m/s, 127° | - | - |
| 1778024050 | 24.44° C | 55% | 1009.7 hPa | 0 mm | 1.34 m/s, 119° | - | - |
| 1778023750 | 24.44° C | 55% | 1009.8 hPa | 0 mm | 0.45 m/s, 128° | - | - |
| 1778023449 | 24.44° C | 55% | 1009.8 hPa | 0 mm | 0.89 m/s, 96° | - | - |
| 1778023149 | 24.44° C | 55% | 1009.8 hPa | 0 mm | 0.89 m/s, 135° | - | - |
| 1778022849 | 24.44° C | 54% | 1009.8 hPa | 0 mm | 0.89 m/s, 111° | - | - |
| 1778022549 | 24.44° C | 54% | 1009.8 hPa | 0 mm | 0.89 m/s, 254° | - | - |
| 1778022249 | 24.44° C | 54% | 1009.9 hPa | 0 mm | 0.89 m/s, 104° | - | - |
| 1778021949 | 25° C | 53% | 1009.8 hPa | 0 mm | 0.89 m/s, 100° | - | - |
| 1778021649 | 25° C | 53% | 1009.7 hPa | 0 mm | 0.89 m/s, 132° | - | - |
| 1778021348 | 25° C | 53% | 1009.6 hPa | 0 mm | 0.89 m/s, 157° | - | - |
| 1778021048 | 25° C | 53% | 1009.7 hPa | 0 mm | 0.89 m/s, 95° | - | - |
| 1778020748 | 25° C | 53% | 1009.8 hPa | 0 mm | 0.89 m/s, 123° | - | - |
| 1778020448 | 25° C | 53% | 1009.7 hPa | 0 mm | 0.89 m/s, 100° | - | - |
| 1778020148 | 25.56° C | 53% | 1009.7 hPa | 0 mm | 0.89 m/s, 151° | - | - |
| 1778019848 | 25.56° C | 52% | 1009.8 hPa | 0 mm | 0.89 m/s, 45° | - | - |
| 1778019548 | 25.56° C | 53% | 1009.9 hPa | 0 mm | 1.34 m/s, 91° | - | - |
| 1778019247 | 25.56° C | 52% | 1009.8 hPa | 0 mm | 0.45 m/s, 205° | - | - |
| 1778018947 | 26.11° C | 52% | 1009.9 hPa | 0 mm | 0.89 m/s, 112° | - | - |
| 1778018647 | 26.11° C | 51% | 1009.9 hPa | 0 mm | 0.45 m/s, 325° | - | - |
| 1778018347 | 26.11° C | 51% | 1009.8 hPa | 0 mm | 1.34 m/s, 69° | - | - |
| 1778018047 | 26.11° C | 51% | 1009.7 hPa | 0 mm | 1.34 m/s, 180° | - | - |
| 1778017747 | 26.67° C | 51% | 1009.7 hPa | 0 mm | 0.89 m/s, 82° | - | - |
* Rain latest hour (hover to see other rain measurements)
** Current wind speed in m/s (hover to see current wind gust speed)